Proctor, AR

8:21 PM CST on December 03, 2016 (GMT -0600)
West Memphis Municipal

Weather History for KAWM - October, 2011

Change the Weather History Date:

Sunday, October 9, 2011

  Actual Average Record
Temperature  
Mean Temperature 72 °F -  
Max Temperature 82 °F 77 °F 90 °F (2010)
Min Temperature 62 °F 53 °F 35 °F (1991)
Cooling Degree Days 7    
Growing Degree Days 22 (Base 50)    
Moisture  
Dew Point 54 °F    
Average Humidity 55    
Maximum Humidity 75    
Minimum Humidity 36    
Precipitation  
Precipitation 0.00 in - - ()
Sea Level Pressure  
Sea Level Pressure 30.16 in    
Wind  
Wind Speed 9 mph (ESE)    
Max Wind Speed 14 mph    
Max Gust Speed 18 mph    
Visibility 10 miles    
Events      
Averages and records for this station are not official NWS values.
T = Trace of Precipitation, MM = Missing Value Source: NWS Daily Summary

Daily Weather History Graph

Daily Weather History Graph

Search for Another Location

Airport or City:

Trip Planner

Search our weather history database for the weather conditions in past years. The results will help you decide how hot, cold, wet, or windy it might be!

Date:

Astronomy

Oct. 09, 2011 Rise Set
Actual Time 7:01 AM CDT 6:34 PM CDT
Civil Twilight 6:36 AM CDT 6:59 PM CDT
Nautical Twilight 6:07 AM CDT 7:28 PM CDT
Astronomical Twilight 5:37 AM CDT 7:58 PM CDT
Moon 5:08 PM CDT (10/9) 4:50 AM CDT (10/9)
Length of Visible Light 12h 23m
Length of Day
11h 32m
Waxing Gibbous, 95% of the Moon is Illuminated
Oct 9
Waxing Gibbous
Oct 11
Full
Oct 19
Last Quarter
Oct 26
New
Nov 2
First Quarter

Hourly Weather History & Observations

Time (CDT) Temp. Heat Index Dew Point Humidity Pressure Visibility Wind Dir Wind Speed Gust Speed Precip Events Conditions
12:53 AM 68.0 °F - 55.9 °F 65% 30.20 in 10.0 mi SE 9.2 mph - N/A   Clear
1:53 AM 66.9 °F - 55.9 °F 68% 30.19 in 10.0 mi SE 9.2 mph - N/A   Clear
2:53 AM 66.0 °F - 55.9 °F 70% 30.19 in 10.0 mi SE 9.2 mph - N/A   Clear
3:53 AM 64.9 °F - 55.0 °F 70% 30.19 in 10.0 mi ESE 6.9 mph - N/A   Clear
4:53 AM 64.0 °F - 55.0 °F 73% 30.19 in 10.0 mi ESE 6.9 mph - N/A   Clear
5:53 AM 63.0 °F - 55.0 °F 75% 30.20 in 10.0 mi ESE 6.9 mph - N/A   Clear
6:53 AM 62.1 °F - 53.1 °F 72% 30.21 in 10.0 mi ESE 5.8 mph - N/A   Clear
7:53 AM 64.0 °F - 54.0 °F 70% 30.22 in 10.0 mi ESE 8.1 mph - N/A   Clear
8:53 AM 66.9 °F - 53.1 °F 61% 30.22 in 10.0 mi SE 13.8 mph - N/A   Clear
9:53 AM 71.1 °F - 52.0 °F 51% 30.23 in 10.0 mi SE 12.7 mph 17.3 mph N/A   Clear
10:53 AM 75.0 °F - 53.1 °F 46% 30.23 in 10.0 mi SSE 11.5 mph - N/A   Clear
11:53 AM 77.0 °F - 53.1 °F 43% 30.22 in 10.0 mi SE 8.1 mph 17.3 mph N/A   Clear
12:53 PM 80.1 °F 79.9 °F 53.1 °F 39% 30.17 in 10.0 mi SE 12.7 mph - N/A   Clear
1:53 PM 80.1 °F 79.9 °F 53.1 °F 39% 30.14 in 10.0 mi SSE 10.4 mph 18.4 mph N/A   Clear
2:53 PM 82.0 °F 81.2 °F 53.1 °F 37% 30.12 in 10.0 mi ESE 11.5 mph - N/A   Partly Cloudy
3:53 PM 81.0 °F - 52.0 °F 36% 30.09 in 10.0 mi East 11.5 mph 18.4 mph N/A   Clear
4:53 PM 81.0 °F - 52.0 °F 36% 30.08 in 10.0 mi East 9.2 mph - N/A   Clear
5:53 PM 79.0 °F - 53.1 °F 40% 30.07 in 10.0 mi East 8.1 mph - N/A   Clear
7:53 PM 73.0 °F - 54.0 °F 51% 30.09 in 10.0 mi East 3.5 mph - N/A   Partly Cloudy
8:53 PM 73.0 °F - 55.9 °F 55% 30.09 in 10.0 mi ESE 9.2 mph - N/A   Clear
9:53 PM 72.0 °F - 57.0 °F 59% 30.10 in 10.0 mi SE 10.4 mph - N/A   Clear
10:53 PM 69.1 °F - 57.0 °F 65% 30.10 in 10.0 mi ESE 6.9 mph - N/A   Clear